Regional Weather Roundup
Issued by NWS

Home | Current Version | Previous Version | Text Only | Print | Product List | Glossary On
Versions: 1 2 3 4 5 6 7 8 9 10 11 12 13 14 15 16 17 18 19 20 21 22 23 24 25 26 27 28 29 30 31 32 33 34 35 36 37 38 39 40 41 42 43 44 45 46 47 48 49 50
000
ASUS45 KSLC 280610
RWRUT

UTAH REGIONAL WEATHER ROUNDUP
NATIONAL WEATHER SERVICE SALT LAKE CITY UT
1200 AM MDT TUE JUL 28 2015

UTZ001>011-023>025-280700-

NORTHERN UTAH

CITY           SKY/WX    TMP DP  RH WIND       PRES   REMARKS
BRIGHAM CITY   CLEAR     62  30  29 NW9       30.18R
HILL AFB       CLEAR     63  36  37 N12       30.17S
LOGAN            N/A    N/A N/A N/A MISG      30.19R
OGDEN          CLEAR     63  36  36 N10       30.16R
PROVO AIRPORT  CLEAR     66  43  42 NW22      30.13R
SALT LAKE CITY CLEAR     62  39  42 N9        30.14R
VERNAL         CLEAR     67  31  26 E5        30.09R
WENDOVER       CLEAR     66  23  19 E7        30.16R
HEBER CITY     CLEAR     59  34  38 N6        30.19R
WEST JORDAN    CLEAR     63  36  36 NW9       30.17R

$$

UTZ012>022-026-027-280700-

SOUTHERN/CENTRAL UTAH

CITY           SKY/WX    TMP DP  RH WIND       PRES   REMARKS
BLANDING       CLEAR     63  27  25 N10       30.16R
BRYCE CANYON   CLEAR     53  23  31 W9        30.26R
CEDAR CITY     CLEAR     61  29  29 N5        30.13R
DELTA          CLEAR     65  36  34 N13       30.13R
HANKSVILLE     CLEAR     73  32  21 N3        30.02R
MILFORD        CLEAR     67  31  26 N13       30.11R
MOAB/CYNLANDS  CLEAR     77  34  21 W16       29.97R
PRICE          CLEAR     69  30  23 NW17G30   30.11S
ST GEORGE      CLEAR     79  32  18 SE3       29.92R
KANAB          CLEAR     70  30  23 S3        30.11R

$$

REGIONAL REPORTS     COLORADO/ARIZONA

CITY           SKY/WX    TMP DP  RH WIND       PRES   REMARKS
CRAIG, CO      CLEAR     57  34  41 W7        30.22R
GRAND JUNCTION CLEAR     71  36  27 W5        29.99R
RIFLE          CLEAR     75  28  17 NW12G22   30.08R
MONTROSE       CLEAR     65  34  31 E7        30.10R
CORTEZ         CLEAR     59  39  47 NE8       30.11R
PAGE, AZ       CLEAR     84  23  10 W6        29.99R
GRAND CANYON   CLEAR     48  20  32 E3        30.24R
KINGMAN        CLEAR     75   9   8 SE10      29.98R
FLAGSTAFF      CLEAR     57  42  57 CALM      30.27S

$$

REGIONAL REPORTS    NEVADA/IDAHO/WYOMING

CITY           SKY/WX    TMP DP  RH WIND       PRES   REMARKS
LAS VEGAS, NV  PTCLDY    91  31  11 S6        29.79R
ELY            CLEAR     60  28  29 N12       30.21R
ELKO           CLEAR     60  28  29 NE8       30.21R
POCATELLO, ID  CLEAR     47  44  90 N5        30.21R
BURLEY         CLEAR     49  38  65 SW8       30.18R
EVANSTON, WY   CLEAR     50  33  52 W8        30.29R
ROCK SPRINGS   CLEAR     56  31  38 W17G23    30.22R
KEMMERER       CLEAR     46  25  42 NW9G17    30.28R

$$



USA.gov is the U.S. government's official web portal to all federal, state and local government web resources and services.